Date String (YYYY-MM-DD hh:mm:ss) UTC,Instrument flags,Ambient pressure (hPa),Sample flow (lpm),Bypass flow (lpm),Sample temperature (°C),Ambient temperature (°C),ASC tube jacket temperature (°C),LED temperature (°C),Box temperature (°C),Sample RH (%),Span deviation,Mass concentration (μg/m³),Mass concentration (μg/m³),Mass concentration (μg/m³)
DateTimeUTC,F1_M11,P_M11,Q1_M11,Q2_M11,T1_M11,T2_M11,T3_M11,T4_M11,T5_M11,U1_M11,ZSPAN_M11,X2_M11,X0_M11,X1_M11
2022-01-13 12:00:00,,0830.7,5.00,0.00,25.7,25.0,00.0,34.7,27.5,08.9,0000.0,0000.03,0000.20,0000.00
2022-01-13 12:01:00,,0830.7,5.00,0.00,25.8,25.0,00.0,34.7,27.5,09.0,0000.0,0000.03,0000.20,0000.00
2022-01-13 12:02:00,,0830.7,4.99,0.00,25.8,25.0,00.0,34.7,27.5,09.0,0000.0,0000.03,0000.20,0000.00
2022-01-13 12:03:00,,0830.7,5.00,0.00,25.8,25.0,00.0,34.7,27.5,09.0,0000.0,0000.03,0000.20,0000.00
2022-01-13 12:04:00,,0830.7,5.01,0.00,25.8,25.0,00.0,34.7,27.5,09.1,0000.0,0000.03,0000.20,0000.00
2022-01-13 12:05:00,,0830.7,4.99,0.00,25.8,25.0,00.0,34.7,27.5,09.0,0000.0,0000.03,0000.20,0000.00
2022-01-13 12:06:00,,0830.7,5.00,0.00,25.8,25.0,00.0,34.7,27.5,09.0,0000.0,0000.03,0000.20,0000.00
2022-01-13 12:07:00,,0830.7,5.01,0.00,25.8,25.0,00.0,34.7,27.5,09.1,0000.0,0000.02,0000.11,0000.00
2022-01-13 12:08:00,,0830.7,5.00,0.00,25.8,25.0,00.0,34.7,27.5,09.2,0000.0,0000.01,0000.06,0000.00
2022-01-13 12:09:00,,0830.8,4.98,0.00,25.8,25.0,00.0,34.7,27.5,09.4,0000.0,0000.00,0000.00,0000.00
2022-01-13 12:10:00,,0830.7,5.01,0.00,25.8,25.0,00.0,34.7,27.5,09.7,0000.0,0000.00,0000.00,0000.00
2022-01-13 12:11:00,,0830.7,5.01,0.00,25.8,24.9,00.0,34.7,27.5,09.7,0000.0,0000.00,0000.00,0000.00
2022-01-13 12:12:00,,0830.7,4.99,0.00,25.8,24.9,00.0,34.7,27.5,09.7,0000.0,0000.00,0000.00,0000.00
2022-01-13 12:13:00,,0830.8,5.00,0.00,25.7,24.9,00.0,34.7,27.5,09.8,0000.0,0000.01,0000.03,0000.00
2022-01-13 12:14:00,,0830.7,5.01,0.00,25.7,24.9,00.0,34.7,27.5,09.8,0000.0,0000.02,0000.94,0000.00
2022-01-13 12:15:00,,0830.8,5.00,0.00,25.7,24.9,00.0,34.7,27.5,09.8,0000.0,0000.02,0001.07,0000.00
2022-01-13 12:16:00,,0830.7,5.00,0.00,25.7,24.8,00.0,34.7,27.4,09.9,0000.0,0000.02,0001.07,0000.00
2022-01-13 12:17:00,,0830.7,5.00,0.00,25.7,24.8,00.0,34.7,27.4,10.0,0000.0,0000.02,0001.07,0000.00
2022-01-13 12:18:00,,0830.7,5.00,0.00,25.7,24.8,00.0,34.7,27.4,10.0,0000.0,0000.02,0001.07,0000.00
2022-01-13 12:19:00,,0830.7,4.99,0.00,25.7,24.8,00.0,34.7,27.4,09.8,0000.0,0000.02,0001.07,0000.00
2022-01-13 12:20:00,,0830.8,5.00,0.00,25.7,24.8,00.0,34.7,27.4,09.8,0000.0,0000.02,0001.07,0000.00
2022-01-13 12:21:00,,0830.8,5.00,0.00,25.7,24.8,00.0,34.7,27.4,09.9,0000.0,0000.03,0001.58,0000.00
2022-01-13 12:22:00,,0830.8,4.99,0.00,25.7,24.8,00.0,34.7,27.4,10.0,0000.0,0000.04,0001.89,0000.00
2022-01-13 12:23:00,,0830.8,5.00,0.00,25.7,24.8,00.0,34.7,27.4,09.8,0000.0,0000.04,0001.89,0000.00
2022-01-13 12:24:00,,0830.7,4.99,0.00,25.7,24.9,00.0,34.7,27.4,09.7,0000.0,0000.02,0001.85,0000.00
2022-01-13 12:25:00,,0830.7,5.01,0.00,25.7,24.9,00.0,34.7,27.4,09.7,0000.0,0000.02,0000.89,0000.00
2022-01-13 12:26:00,,0830.7,5.00,0.00,25.7,24.9,00.0,34.7,27.4,09.5,0000.0,0000.02,0000.81,0000.00
2022-01-13 12:27:00,,0830.8,5.00,0.00,25.7,24.9,00.0,34.7,27.4,09.4,0000.0,0000.02,0000.81,0000.00
2022-01-13 12:28:00,,0830.7,5.00,0.00,25.7,24.9,00.0,34.7,27.4,09.5,0000.0,0000.02,0000.81,0000.00
2022-01-13 12:29:00,,0830.8,4.99,0.00,25.7,24.9,00.0,34.7,27.4,09.5,0000.0,0000.02,0000.81,0000.00
2022-01-13 12:30:00,,0830.7,5.02,0.00,25.7,24.9,00.0,34.7,27.4,09.5,0000.0,0000.02,0000.81,0000.00
2022-01-13 12:31:00,,0830.7,4.99,0.00,25.7,24.9,00.0,34.7,27.4,09.7,0000.0,0000.02,0000.81,0000.00
2022-01-13 12:32:00,,0830.7,5.01,0.00,25.7,24.9,00.0,34.7,27.4,09.5,0000.0,0000.01,0000.41,0000.00
2022-01-13 12:33:00,,0830.7,5.00,0.00,25.7,24.9,00.0,34.7,27.4,09.3,0000.0,0000.00,0000.00,0000.00
2022-01-13 12:34:00,,0830.7,5.01,0.00,25.7,24.9,00.0,34.7,27.4,09.2,0000.0,0000.00,0000.01,0000.00
2022-01-13 12:35:00,,0830.7,4.98,0.00,25.7,24.9,00.0,34.7,27.4,09.3,0000.0,0000.01,0000.57,0000.00
2022-01-13 12:36:00,,0830.7,5.01,0.00,25.7,24.9,00.0,34.7,27.5,09.2,0000.0,0000.01,0001.04,0000.00
2022-01-13 12:37:00,,0830.7,5.01,0.00,25.7,24.9,00.0,34.7,27.5,09.1,0000.0,0000.01,0001.04,0000.00
2022-01-13 12:38:00,,0830.7,4.98,0.00,25.7,24.9,00.0,34.7,27.4,09.3,0000.0,0000.01,0001.04,0000.00
2022-01-13 12:39:00,,0830.6,5.02,0.00,25.7,24.9,00.0,34.7,27.5,09.4,0000.0,0000.01,0001.04,0000.00
2022-01-13 12:40:00,,0830.6,5.00,0.00,25.7,24.9,00.0,34.7,27.5,09.5,0000.0,0000.01,0001.04,0000.00
2022-01-13 12:41:00,,0830.6,5.00,0.00,25.7,24.9,00.0,34.7,27.5,09.6,0000.0,0000.02,0001.06,0000.00
2022-01-13 12:42:00,,0830.6,4.99,0.00,25.7,24.9,00.0,34.7,27.5,09.5,0000.0,0000.03,0001.07,0000.00
2022-01-13 12:43:00,,0830.6,5.02,0.00,25.7,24.9,00.0,34.7,27.5,09.5,0000.0,0000.03,0001.07,0000.00
2022-01-13 12:44:00,,0830.6,4.98,0.00,25.7,24.9,00.0,34.7,27.5,09.5,0000.0,0000.04,0001.12,0000.01
2022-01-13 12:45:00,,0830.6,5.00,0.00,25.7,24.9,00.0,34.7,27.5,09.5,0000.0,0000.04,0001.12,0000.01
2022-01-13 12:46:00,,0830.6,4.99,0.00,25.7,24.9,00.0,34.7,27.5,09.5,0000.0,0000.04,0000.61,0000.00
2022-01-13 12:47:00,,0830.6,5.00,0.00,25.7,24.9,00.0,34.7,27.5,09.3,0000.0,0000.04,0000.42,0000.00
2022-01-13 12:48:00,,0830.6,5.00,0.00,25.7,25.0,00.0,34.7,27.5,09.2,0000.0,0000.04,0000.66,0000.00
2022-01-13 12:49:00,,0830.7,5.00,0.00,25.7,25.0,00.0,34.7,27.5,09.1,0000.0,0000.04,0000.80,0000.00
2022-01-13 12:50:00,,0830.7,4.99,0.00,25.7,25.0,00.0,34.7,27.5,09.1,0000.0,0000.04,0001.42,0000.00
2022-01-13 12:51:00,,0830.8,5.02,0.00,25.7,25.0,00.0,34.7,27.5,09.2,0000.0,0000.05,0001.55,0000.00
2022-01-13 12:52:00,,0830.7,5.01,0.00,25.7,25.0,00.0,34.7,27.5,09.4,0000.0,0000.04,0001.64,0000.00
2022-01-13 12:53:00,,0830.7,4.99,0.00,25.7,25.0,00.0,34.7,27.5,09.5,0000.0,0000.03,0001.63,0000.00
2022-01-13 12:54:00,,0830.7,5.00,0.00,25.7,25.0,00.0,34.7,27.5,09.7,0000.0,0000.04,0001.64,0000.00
2022-01-13 12:55:00,,0830.7,4.99,0.00,25.7,24.9,00.0,34.7,27.5,09.8,0000.0,0000.02,0002.08,0000.00
2022-01-13 12:56:00,,0830.8,5.00,0.00,25.7,24.9,00.0,34.7,27.5,09.8,0000.0,0000.02,0003.26,0000.00
2022-01-13 12:57:00,,0830.7,5.01,0.00,25.7,24.9,00.0,34.7,27.5,09.9,0000.0,0000.02,0003.26,0000.00
2022-01-13 12:58:00,,0830.7,4.99,0.00,25.7,24.9,00.0,34.7,27.5,10.0,0000.0,0000.02,0002.93,0000.00
2022-01-13 12:59:00,,0830.7,5.01,0.00,25.7,24.9,00.0,34.7,27.5,10.0,0000.0,0000.02,0002.68,0000.00
